W4IOJ Weather Reports


time (UTC)temp
C
wind
direction
speed
KPH
gust
KPH
rain 1hr
cm
rain 24hr
cm
rain mn
cm
humidity
%
barometer
mb
20260508194518 22 9 1.6 9.7 0.00 0.00 0.00 33 1014.3
20260508193016 22 315 1.6 8.0 0.00 0.00 0.00 33 1014.4
20260508191511 21 25 1.6 8.0 0.00 0.00 0.00 35 1014.5
20260508190009 21 23 3.2 8.0 0.00 0.00 0.00 35 1014.9
20260508184508 21 314 1.6 6.4 0.00 0.00 0.00 37 1015.1
20260508183005 20 14 3.2 8.0 0.00 0.00 0.00 38 1015.2
20260508181524 20 86 0.0 4.8 0.00 0.00 0.00 36 1015.4
20260508180020 20 29 3.2 9.7 0.00 0.00 0.00 39 1015.5
20260508174526 20 358 3.2 6.4 0.00 0.00 0.00 40 1015.9
20260508173016 20 348 3.2 6.4 0.00 0.00 0.00 40 1016.0
20260508171510 18 274 0.0 8.0 0.00 0.00 0.00 40 1016.4
20260508170004 19 335 1.6 8.0 0.00 0.00 0.00 37 1016.6
20260508164532 19 27 3.2 8.0 0.00 0.00 0.00 1017.0
20260508163024 18 357 0.0 6.4 0.00 0.00 0.00 40 1017.2
20260508161521 18 280 1.6 6.4 0.00 0.00 0.00 40 1017.5
20260508160023 18 241 1.6 6.4 0.00 0.00 0.00 46 1017.7
20260508154516 17 80 1.6 6.4 0.00 0.00 0.00 43 1017.7
20260508153012 17 8 1.6 6.4 0.00 0.00 0.00 46 1017.9
20260508151509 16 216 0.0 4.8 0.00 0.00 0.00 48 1018.0
20260508150027 16 359 1.6 6.4 0.00 0.00 0.00 53 1018.1
20260508144522 15 288 0.0 4.8 0.00 0.03 0.00 59 1018.1
20260508143021 15 82 1.6 3.2 0.00 0.03 0.00 62 1018.2
20260508141520 15 108 3.2 4.8 0.00 0.03 0.00 61 1018.3
20260508140016 13 167 0.0 4.8 0.00 0.03 0.00 67 1018.4
20260508134516 13 106 0.0 4.8 0.00 0.03 0.00 70 1018.4
20260508133027 12 63 1.6 3.2 0.00 0.03 0.00 71 1018.3
20260508131524 12 110 1.6 4.8 0.00 0.03 0.00 74 1018.3
20260508130024 11 12 1.6 4.8 0.00 0.03 0.00 80 1018.2
20260508124523 10 57 1.6 4.8 0.00 0.03 0.00 82 1018.3
20260508123030 9 48 0.0 3.2 0.00 0.03 0.00 87 1018.2
20260508121530 8 36 1.6 3.2 0.00 0.03 0.00 92 1018.1
20260508120029 7 122 0.0 3.2 0.00 0.03 0.00 96 1017.9
20260508114528 6 40 1.6 3.2 0.00 0.03 0.00 95 1017.8
20260508113028 6 56 0.0 3.2 0.00 0.03 0.00 95 1017.6
20260508111525 6 127 0.0 3.2 0.00 0.10 0.00 94 1017.3
20260508110024 6 82 0.0 3.2 0.00 0.13 0.00 94 1017.2
20260508104541 6 14 0.0 3.2 0.00 0.13 0.00 94 1017.0
20260508103015 7 1 0.0 3.2 0.00 0.13 0.00 94 1016.9
20260508101516 7 10 0.0 3.2 0.00 0.13 0.00 95 1016.6
20260508100015 7 34 0.0 3.2 0.00 0.13 0.00 95 1016.5
20260508094514 7 10 0.0 3.2 0.00 0.13 0.00 95 1016.4
20260508093016 7 23 0.0 3.2 0.00 0.13 0.00 95 1016.4
20260508091517 7 13 0.0 3.2 0.00 0.13 0.00 95 1016.2
20260508090019 7 19 1.6 3.2 0.00 0.15 0.00 95 1016.3
20260508084516 8 28 1.6 3.2 0.00 0.20 0.00 95 1016.1
20260508083015 8 132 0.0 3.2 0.00 0.25 0.00 95 1016.1
20260508081513 8 111 0.0 3.2 0.00 0.28 0.00 96 1016.3
20260508080017 8 117 0.0 3.2 0.00 0.30 0.00 96 1016.2
20260508074520 7 96 0.0 0.0 0.00 0.30 0.00 96 1016.1
20260508073019 7 167 0.0 0.0 0.00 0.30 0.00 96 1016.2
20260508071520 7 167 0.0 0.0 0.00 0.30 0.00 95 1016.2
20260508070022 7 173 0.0 0.0 0.00 0.30 0.00 94 1016.1
20260508064518 7 173 0.0 0.0 0.00 0.33 0.00 95 1016.4
20260508063013 7 173 0.0 0.0 0.00 0.33 0.00 95 1016.4
20260508061509 7 173 0.0 0.0 0.00 0.36 0.00 95 1016.2
20260508060021 8 173 0.0 0.0 0.00 0.43 0.00 95 1016.3
20260508054523 8 173 0.0 0.0 0.00 0.51 0.00 95 1016.4
20260508053022 7 143 0.0 0.0 0.00 0.51 0.00 95 1016.5
20260508051518 7 143 0.0 0.0 0.00 0.51 0.00 95 1016.3
20260508050021 7 143 0.0 0.0 0.00 0.51 0.00 94 1016.3
20260508044513 8 143 0.0 0.0 0.00 0.51 0.00 94 1016.1
20260508043046 8 143 0.0 0.0 0.00 0.51 0.00 94 1015.9
20260508041525 8 143 0.0 0.0 0.00 0.51 0.00 94 1015.9
20260508040027 8 143 0.0 0.0 0.00 0.53 0.00 94 1015.7
20260508034523 8 143 0.0 0.0 0.00 0.53 0.53 94 1015.6
20260508033019 8 143 0.0 0.0 0.00 0.53 0.53 94 1015.5
20260508031522 8 143 0.0 0.0 0.00 0.53 0.53 94 1015.8
20260508030018 8 132 0.0 3.2 0.00 0.53 0.53 94 1015.5
20260508024531 8 146 0.0 3.2 0.00 0.53 0.53 94 1015.4
20260508023025 8 150 0.0 1.6 0.00 0.53 0.53 93 1015.3
20260508021524 8 179 0.0 3.2 0.00 0.53 0.53 93 1015.2
20260508020020 9 179 0.0 0.0 0.00 0.61 0.53 92 1015.2
20260508014518 9 180 0.0 0.0 0.00 0.81 0.53 92 1014.7
20260508013015 9 180 0.0 0.0 0.00 0.86 0.53 91 1014.6
20260508011524 10 180 0.0 0.0 0.00 0.89 0.53 90 1014.4
20260508010027 10 180 0.0 3.2 0.00 0.91 0.53 90 1014.1
20260508004527 10 180 0.0 3.2 0.00 0.97 0.53 88 1013.9
20260508003026 11 179 0.0 0.0 0.00 0.97 0.53 86 1013.7
20260508001524 12 179 0.0 0.0 0.00 0.97 0.53 84 1013.7
20260508000018 12 175 0.0 1.6 0.00 0.97 0.53 82 1013.8
20260507234535 13 169 0.0 3.2 0.00 0.97 0.53 79 1013.8
20260507233014 13 190 0.0 3.2 0.00 0.99 0.53 76 1013.9
20260507231516 15 229 0.0 3.2 0.00 1.02 0.53 71 1013.9
20260507230008 15 181 0.0 3.2 0.00 1.02 0.53 73 1013.9
20260507224504 14 295 1.6 4.8 0.00 1.02 0.53 73 1014.0
20260507223024 14 141 0.0 1.6 0.00 1.02 0.53 74 1013.9
20260507221520 14 319 0.0 3.2 0.00 1.02 0.53 72 1013.7
20260507220017 14 22 0.0 3.2 0.00 1.02 0.53 73 1013.7
20260507214515 13 172 1.6 3.2 0.00 1.02 0.53 75 1013.6
20260507213011 12 205 0.0 3.2 0.00 1.02 0.53 79 1013.4
20260507211506 12 281 0.0 3.2 0.00 1.02 0.53 81 1013.3
20260507210005 12 202 0.0 3.2 0.00 1.02 0.53 81 1013.3
20260507204523 12 293 1.6 4.8 0.00 1.02 0.53 81 1013.4
20260507203020 12 4 0.0 6.4 0.00 1.02 0.53 81 1013.4
20260507201518 12 344 1.6 4.8 0.00 1.02 0.53 80 1013.3
20260507200016 12 326 4.8 8.0 0.00 1.02 0.53 79 1013.3